Tracking 19564 objects as of 20-Mar-2019
HD Live streaming from Space Station
objects crossing your sky now

FENGYUN 1C DEB

Track FENGYUN 1C DEB now!
10-day predictions


NORAD ID: 31729
Int'l Code: 1999-025CEC
Perigee: 826.2 km
Apogee: 946.4 km
Inclination: 99.2 °
Period: 102.5 minutes
Semi major axis: 7257 km
RCS: 0.0123 m2 (small)
Launch date: May 10, 1999
Source: People's Republic of China (PRC)
Launch site: Taiyaun Space Center, China (TSC)

Note: This is SATELLITE DEBRIS
aabbcc
Your satellite tracking list
Your tracking list is empty




NASA's NSSDC Master Catalog

Two Line Element Set (TLE):
1 31729U 99025CEC 19076.47029461 +.00001273 +00000-0 +80594-3 0  9995
2 31729 099.2465 174.6379 0082800 286.0571 073.1489 14.04248410289697
Source of the keplerian elements: AFSPC